Terminal Aerodrome Forecast
Issued by NWS

Home | Current Version | Previous Version | Text Only | Print | Product List | Glossary On
Versions: 1 2 3 4 5 6 7 8 9 10 11 12 13
491
FTAK31 PAJN 052330
TAFAGY
TAF
PAGY 052330Z 0600/0624 21014G21KT P6SM VCSH OVC050
     FM060400 21011G17KT P6SM -RA OVC050
     FM060900 21008KT P6SM -RA OVC040
     FM061400 21011G17KT P6SM -RA SCT015 OVC030
     FM062000 21016G21KT P6SM -RA SCT015 OVC030
      AMD LTD TO CLD VIS AND WIND=

USA.gov is the U.S. government's official web portal to all federal, state and local government web resources and services.